Other Public Products
Issued by NWS Charleston, SC

Home | Current Version | Previous Version | Text Only | Print | Product List | Glossary On
Versions: 1 2 3 4 5 6 7 8 9 10 11 12 13 14 15 16 17 18 19 20 21 22 23 24 25 26 27 28 29 30 31 32 33 34 35 36 37 38 39 40 41 42 43 44 45 46 47 48 49 50
720
FPUS82 KCHS 251927
OPUCHS

TEST...KCHS/KSAV Gateway Observations...TEST
National Weather Service Charleston SC
200 PM EST SUN FEB 25 2018

NOTE: "fair" indicates few or no clouds below 12,000 feet with no
significant weather and/or obstructions to visibility.

SCZ050-WAZ558-NCZ071-TXZ119-213-PAZ071-DCZ001-FLZ074-172-MI076-
NYZ176-178-MAZ016-IL014-TNZ027-NJZ106-GAZ044-MD014-252000-

...Gateway Observations for Charleston International...

CITY           SKY/WX    TMP DP  RH WIND       PRES   REMARKS
Chas Airport   FAIR      83  65  54 SW10      30.07F
Seattle        CLOUDY    42  36  79 SW20      29.80S
Charlotte      LGT RAIN  66  61  84 S5        30.08F
Dallas DFW     PTSUNNY   64  45  49 S13       30.02F
Dallas Love    PTSUNNY   64  47  53 SE14      30.03F
Philladelphia  CLOUDY    47  44  90 N6        29.96R
Wash National  CLOUDY    52  50  93 CALM      29.97F
Baltimore      CLOUDY    49  48  97 W3        29.95S
Miami          FAIR      82  68  62 SE14G20   30.14F
Detroit        PTSUNNY   44  27  51 SW25G37   29.90R
Newark         LGT RAIN  42  41  96 N13       29.98R FOG
Laguardia      LGT RAIN  40  38  93 NE13G25   29.97R FOG     WCI  32
J F K          LGT RAIN  42  42 100 NW16      29.97R FOG
Boston Logan   RAIN      39  38  96 E16       30.07F FOG     WCI  30
Ft. Lauderdale FAIR      81  69  67 SE15      30.14F
Chicago O`Hare FAIR      41  23  48 W18G25    29.92R
Chicago Midway FAIR      43  24  47 W21G26    29.94S
Houston Bush   LGT RAIN  61  59  93 NE12      29.95F FOG
Houston Hobby  CLOUDY    60  60 100 NE10      29.96F
Nashville      CLOUDY    54  43  66 CALM      30.09F
Atlanta        CLOUDY    64  59  83 W5        30.15S

$$

GAZ044-118-TXZ119-213-NCZ071-DCZ001-MDZ014-506-PAZ021-071-NJZ106-
NYZ176-178-MAZ106-OHZ011-021-055-MIZ076-KYZ091-ILZ014-INZ047-
MNZ060-ONZ431-252000-

...Gateway Observations for Savannah International...

CITY           SKY/WX    TMP DP  RH WIND       PRES   REMARKS
Savannah Arpt  FAIR      86  62  44 W13       30.09F
Atlanta        CLOUDY    64  59  83 W5        30.15S
Charlotte      LGT RAIN  66  61  84 S5        30.08F
Dallas DFW     PTSUNNY   64  45  49 S13       30.02F
Houston Bush   LGT RAIN  61  59  93 NE12      29.95F FOG
Wash National  CLOUDY    52  50  93 CALM      29.97F
Wash Dulles    CLOUDY    51  50  96 VRB3      29.94F
Baltimore      CLOUDY    49  48  97 W3        29.95S
Philadelphia   CLOUDY    47  44  90 N6        29.96R
Newark         LGT RAIN  42  41  96 N13       29.98R FOG
Laguardia      LGT RAIN  40  38  93 NE13G25   29.97R FOG     WCI  32
J F K          LGT RAIN  42  42 100 NW16      29.97R FOG
Boston         RAIN      39  38  96 E16       30.07F FOG     WCI  30
Pittsburg      CLOUDY    54  32  43 W14G21    29.90R
Akron          CLOUDY    50  33  52 W20       29.91R
Cleveland      PTSUNNY   46  34  62 SW21G30   29.93R
Cincinnati     CLOUDY    47  37  68 SW10      30.04S
Columbus       FAIR      49  37  64 W16       30.01R
Detroit        PTSUNNY   44  27  51 SW25G37   29.90R
Chicago O`Hare FAIR      41  23  48 W18G25    29.92R
Minneapolis    CLOUDY    25  17  72 W14       29.77R WCI  13
Indianapolis   FAIR      47  30  51 W20       30.04F
Toronto Canada PTSUNNY   52  36  54 W20G33    29.70R

$$




USA.gov is the U.S. government's official web portal to all federal, state and local government web resources and services.